Rogers City, MI

6:12 PM EDT on April 19, 2018 (GMT -0400)
Presque Isle County

Weather History for KPZQ - September, 2013

Change the Weather History Date:

Saturday, September 7, 2013

  Actual Average (KAPN) Record (KAPN)
Temperature  
Mean Temperature 68 °F -  
Max Temperature 75 °F 71 °F 93 °F (1960)
Min Temperature 62 °F 49 °F 34 °F (1950)
Cooling Degree Days 4    
Growing Degree Days 18 (Base 50)    
Moisture  
Dew Point 64 °F    
Average Humidity 90    
Maximum Humidity 96    
Minimum Humidity 77    
Precipitation  
Precipitation 0.00 in - - ()
Sea Level Pressure  
Sea Level Pressure 29.92 in    
Wind  
Wind Speed 3 mph (WNW)    
Max Wind Speed 10 mph    
Max Gust Speed -    
Visibility 7 miles    
Events Rain    
Averages and records for this station are not official NWS values.
T = Trace of Precipitation, MM = Missing Value Source: NWS Daily Summary

Daily Weather History Graph

Daily Weather History Graph

Search for Another Location

Airport or City:

Astronomy

Sep. 07, 2013 Rise Set
Actual Time 7:04 AM EDT 8:01 PM EDT
Civil Twilight 6:34 AM EDT 8:31 PM EDT
Nautical Twilight 5:58 AM EDT 9:07 PM EDT
Astronomical Twilight 5:20 AM EDT 9:44 PM EDT
Moon 9:26 AM EDT (9/7) 8:48 PM EDT (9/7)
Length of Visible Light 13h 56m
Length of Day
12h 56m
Waxing Crescent, 5% of the Moon is Illuminated
Sep 7
Waxing Crescent
Sep 12
First Quarter
Sep 19
Full
Sep 26
Last Quarter
Oct 4
New

Hourly Weather History & Observations

Time (EDT) Temp. Dew Point Humidity Pressure Visibility Wind Dir Wind Speed Gust Speed Precip Events Conditions
12:15 AM 64.8 °F 57.9 °F 78% 29.98 in 10.0 mi SW 3.5 mph - N/A Rain Light Rain
12:35 AM 64.6 °F 57.9 °F 79% 29.97 in 10.0 mi SW 3.5 mph - N/A Rain Rain
12:55 AM 63.9 °F 58.1 °F 81% 29.96 in 10.0 mi SSW 3.5 mph - N/A Rain Rain
1:15 AM 64.2 °F 58.1 °F 80% 29.97 in 10.0 mi Calm Calm - N/A   Overcast
1:35 AM 64.0 °F 58.5 °F 82% 29.95 in 10.0 mi SSW 3.5 mph - N/A   Overcast
1:55 AM 64.6 °F 58.5 °F 80% 29.94 in 10.0 mi SSW 4.6 mph - N/A   Overcast
2:15 AM 65.3 °F 58.3 °F 78% 29.93 in 10.0 mi SW 6.9 mph - N/A   Overcast
2:35 AM 65.3 °F 58.1 °F 77% 29.92 in 10.0 mi SSW 6.9 mph - N/A   Overcast
2:55 AM 65.7 °F 58.6 °F 78% 29.92 in 10.0 mi North 5.8 mph - N/A   Overcast
3:15 AM 64.2 °F 59.9 °F 86% 29.92 in 4.0 mi NNW 3.5 mph - N/A Rain Light Rain
3:35 AM 63.5 °F 60.4 °F 90% 29.91 in 10.0 mi Calm Calm - N/A   Overcast
3:55 AM 63.3 °F 60.8 °F 91% 29.92 in 10.0 mi NNW 4.6 mph - N/A   Overcast
4:15 AM 63.5 °F 61.0 °F 91% 29.92 in 10.0 mi North 3.5 mph - N/A   Overcast
4:35 AM 63.5 °F 61.0 °F 91% 29.91 in 10.0 mi Calm Calm - N/A   Overcast
4:55 AM 63.5 °F 61.0 °F 91% 29.92 in 10.0 mi North 3.5 mph - N/A Rain Light Rain
5:14 AM 63.5 °F 61.3 °F 93% 29.93 in 5.0 mi Calm Calm - N/A Rain Rain
5:35 AM 62.8 °F 61.0 °F 94% 29.91 in 1.2 mi SSE 5.8 mph - N/A Rain Heavy Rain
5:55 AM 63.3 °F 61.7 °F 94% 29.90 in 5.0 mi SSE 4.6 mph - N/A Rain Light Rain
6:15 AM 64.4 °F 62.8 °F 94% 29.90 in 7.0 mi SSW 6.9 mph - N/A Rain Rain
6:35 AM 64.4 °F 62.6 °F 94% 29.89 in 7.0 mi SSW 4.6 mph - N/A Rain Light Rain
6:55 AM 64.8 °F 63.1 °F 94% 29.88 in 7.0 mi SSW 5.8 mph - N/A Rain Rain
7:15 AM 65.5 °F 63.7 °F 94% 29.89 in 5.0 mi SW 4.6 mph - N/A Rain Light Rain
7:35 AM 65.7 °F 63.9 °F 94% 29.90 in 7.0 mi SW 3.5 mph - N/A   Overcast
7:55 AM 65.7 °F 64.0 °F 94% 29.89 in 7.0 mi SSW 4.6 mph - N/A Rain Light Rain
8:15 AM 66.6 °F 64.9 °F 95% 29.88 in 7.0 mi SW 5.8 mph - N/A Rain Light Rain
8:35 AM 67.5 °F 65.8 °F 95% 29.89 in 5.0 mi WNW 4.6 mph - N/A   Overcast
8:54 AM 66.7 °F 65.3 °F 95% 29.89 in 4.0 mi North 4.6 mph - N/A Rain Heavy Rain
9:15 AM 67.3 °F 65.8 °F 95% 29.89 in 2.0 mi West 3.5 mph - N/A Rain Rain
9:35 AM 68.0 °F 66.6 °F 95% 29.89 in 1.0 mi West 5.8 mph - N/A Rain Heavy Rain
9:55 AM 68.2 °F 66.9 °F 96% 29.88 in 5.0 mi WSW 3.5 mph - N/A Rain Light Rain
10:15 AM 69.4 °F 68.0 °F 95% 29.88 in 7.0 mi West 3.5 mph - N/A   Overcast
10:35 AM 69.4 °F 67.8 °F 95% 29.87 in 7.0 mi Calm Calm - N/A   Scattered Clouds
10:55 AM 70.2 °F 68.4 °F 94% 29.89 in 7.0 mi WSW 4.6 mph - N/A   Mostly Cloudy
11:15 AM 70.7 °F 68.4 °F 92% 29.90 in 7.0 mi WSW 3.5 mph - N/A   Overcast
11:35 AM 71.6 °F 68.9 °F 91% 29.90 in 7.0 mi Calm Calm - N/A   Overcast
11:55 AM 72.5 °F 69.1 °F 89% 29.90 in 10.0 mi WSW 4.6 mph - N/A   Overcast
12:15 PM 73.0 °F 69.1 °F 87% 29.90 in 10.0 mi WNW 4.6 mph - N/A   Overcast
12:35 PM 73.8 °F 69.3 °F 86% 29.89 in 10.0 mi West 3.5 mph - N/A   Overcast
12:55 PM 75.7 °F 70.2 °F 83% 29.89 in 10.0 mi WNW 4.6 mph - N/A   Overcast
1:14 PM 74.3 °F 68.5 °F 82% 29.89 in 10.0 mi North 6.9 mph - N/A   Overcast
1:35 PM 71.1 °F 67.5 °F 88% 29.88 in 10.0 mi NNE 3.5 mph - N/A   Overcast
1:55 PM 70.2 °F 67.1 °F 90% 29.88 in 7.0 mi NNE 3.5 mph - N/A   Overcast
2:14 PM 68.4 °F 66.0 °F 92% 29.88 in 4.0 mi NNE 3.5 mph - N/A   Overcast
2:35 PM 68.0 °F 65.8 °F 93% 29.88 in 4.0 mi NNE 3.5 mph - N/A   Overcast
2:54 PM 67.6 °F 65.5 °F 93% 29.89 in 4.0 mi NNE 3.5 mph - N/A   Overcast
3:15 PM 67.6 °F 65.5 °F 93% 29.89 in 5.0 mi North 4.6 mph - N/A   Overcast
3:34 PM 67.3 °F 65.3 °F 93% 29.90 in 5.0 mi Calm Calm - N/A   Overcast
3:55 PM 67.5 °F 65.3 °F 93% 29.90 in 5.0 mi North 3.5 mph - N/A   Overcast
4:14 PM 66.9 °F 64.6 °F 92% 29.90 in 4.0 mi Calm Calm - N/A   Overcast
4:35 PM 66.4 °F 64.6 °F 94% 29.90 in 3.0 mi Calm Calm - N/A   Overcast
4:55 PM 66.4 °F 64.6 °F 94% 29.90 in 3.0 mi Calm Calm - N/A   Overcast
5:14 PM 67.1 °F 64.9 °F 93% 29.90 in 4.0 mi Calm Calm - N/A   Overcast
5:35 PM 66.4 °F 64.4 °F 93% 29.91 in 2.0 mi Calm Calm - N/A   Overcast
5:55 PM 66.2 °F 64.0 °F 93% 29.92 in 3.0 mi Calm Calm - N/A   Overcast
6:15 PM 67.5 °F 65.1 °F 92% 29.92 in 4.0 mi Calm Calm - N/A   Overcast
6:35 PM 67.6 °F 65.1 °F 92% 29.92 in 5.0 mi Calm Calm - N/A   Overcast
6:54 PM 68.0 °F 64.8 °F 89% 29.92 in 7.0 mi Calm Calm - N/A   Overcast
7:15 PM 68.0 °F 64.6 °F 89% 29.92 in 7.0 mi Calm Calm - N/A   Mostly Cloudy
7:34 PM 68.0 °F 64.6 °F 89% 29.93 in 7.0 mi Calm Calm - N/A   Mostly Cloudy
7:55 PM 68.0 °F 64.6 °F 89% 29.93 in 7.0 mi Calm Calm - N/A   Mostly Cloudy
8:15 PM 65.8 °F 63.5 °F 92% 29.94 in 5.0 mi NW 3.5 mph - N/A   Scattered Clouds
8:34 PM 65.8 °F 63.7 °F 93% 29.95 in 4.0 mi Calm Calm - N/A   Clear
8:55 PM 66.2 °F 64.0 °F 93% 29.96 in 7.0 mi WNW 4.6 mph - N/A   Mostly Cloudy
9:15 PM 66.4 °F 64.4 °F 93% 29.97 in 7.0 mi West 3.5 mph - N/A   Overcast
9:35 PM 66.4 °F 64.4 °F 93% 29.97 in 7.0 mi West 3.5 mph - N/A   Overcast
9:55 PM 66.6 °F 64.4 °F 93% 29.97 in 7.0 mi Calm Calm - N/A   Overcast
10:15 PM 67.1 °F 65.1 °F 93% 29.98 in 7.0 mi WNW 5.8 mph - N/A   Overcast
10:35 PM 67.5 °F 65.3 °F 93% 29.99 in 7.0 mi NNW 9.2 mph - N/A   Overcast
10:55 PM 66.2 °F 63.1 °F 90% 30.00 in 10.0 mi North 10.4 mph - N/A   Overcast
11:15 PM 64.6 °F 61.0 °F 88% 30.01 in 10.0 mi North 8.1 mph - N/A   Overcast
11:35 PM 64.0 °F 59.7 °F 86% 30.02 in 10.0 mi North 4.6 mph - N/A   Overcast
11:54 PM 63.9 °F 59.0 °F 84% 30.02 in 10.0 mi North 3.5 mph - N/A   Overcast